{"data":{"norad_id":56144,"epoch":"2026-05-25T01:46:44.465664Z","epoch_age_seconds":58791,"freshness":"FRESH","line1":"1 56144U 23046BE  26145.07412576  .00000197  00000+0  16680-4 0  9996","line2":"2 56144  43.0032  75.4726 0001746 274.0350  86.0302 15.27577096173889","mean_motion":15.27577096,"eccentricity":0.0001746,"inclination_deg":43.0032,"raan_deg":75.4726,"arg_perigee_deg":274.035,"mean_anomaly_deg":86.0302,"bstar":1.668e-5,"rev_number":17388,"period_min":94.266927919427,"perigee_km":481.85982706351,"apogee_km":484.25575628476,"semimajor_km":6861.1947916741,"source":"CELESTRAK","updated_at":"2026-05-25T13:38:17.963367Z"}}